Regional Weather Roundup
Issued by NWS

Home | Current Version | Previous Version | Graphics & Text | Print | Product List | Glossary On
Versions: 1 2 3 4 5 6 7 8 9 10 11 12 13 14 15 16 17 18 19 20 21 22 23 24 25 26 27 28 29 30 31 32 33 34 35 36 37 38 39 40 41 42 43 44 45 46 47 48 49 50
000
ASUS43 KMKX 280300
RWRWI

WISCONSIN REGIONAL WEATHER ROUNDUP
NATIONAL WEATHER SERVICE MILWAUKEE/SULLIVAN WI
1000 PM CDT TUE SEP 27 2016

NOTE: "FAIR" INDICATES FEW OR NO CLOUDS BELOW 12,000 FEET WITH NO
SIGNIFICANT WEATHER AND/OR OBSTRUCTIONS TO VISIBILITY.

WIZ001-002-006>008-014>016-023>028-280400-
NORTHWEST WISCONSIN

CITY           SKY/WX    TMP DP  RH WIND       PRES   REMARKS
SUPERIOR ARPT  CLOUDY    50  46  87 N3        29.85R
ASHLAND        CLOUDY    50  47  89 W3        29.81R
HAYWARD        CLOUDY    48  45  89 N6        29.82R
SIREN          CLOUDY    47  45  93 NW7       29.86R
CUMBERLAND     CLOUDY    45  43  93 N9        29.83S
RICE LAKE      CLOUDY    48  45  89 NW6       29.84R
CHETEK         NOT AVBL
LADYSMITH      CLOUDY    48  47  94 NW10      29.81S
EAU CLAIRE     NOT AVBL
MENOMONIE      CLOUDY    47  47 100 NW10      29.83R
NEW RICHMOND   CLOUDY    47  46  97 NW8       29.86R
OSCEOLA        CLOUDY    48  48 100 NW7       29.89R
$$

WIZ003>005-009-010-017-018-280400-
NORTH CENTRAL WISCONSIN

CITY           SKY/WX    TMP DP  RH WIND       PRES   REMARKS
MANITOWISH WTR NOT AVBL
ARBOR VITAE    CLOUDY    49  48  96 NW5       29.74S FOG
WOODRUFF       CLOUDY    49  48  96 NW5       29.74S FOG
RHINELANDER    CLOUDY    48  48 100 W8        29.75R
EAGLE RIVER    LGT SNOW  47  47 100 CALM      29.73R
LAND O LAKES   CLOUDY    49  48  99 NW6       29.74R FOG
PHILLIPS       CLOUDY    46  46 100 NW3       29.77R
TOMAHAWK       CLOUDY    46  45  93 NW7       29.77R
MEDFORD        CLOUDY    46  46 100 NW12      29.77R
MERRILL        CLOUDY    47  47  97 N3        29.76R
$$

WIZ029-030-035-036-043>047-280400-
CENTRAL WISCONSIN

CITY           SKY/WX    TMP DP  RH WIND       PRES   REMARKS
WAUSAU         CLOUDY    48  46  93 NW7       29.74S
MOSINEE        CLOUDY    48  48 100 NW8       29.77R
MARSHFIELD     CLOUDY    48  45  89 NW9       29.77R
STEVENS POINT  CLOUDY    46  46 100 W7        29.76S
WAUPACA        CLOUDY    51  50  95 W5        29.76R
WAUTOMA        CLOUDY    49  47  93 W8        29.77S
WISC RAPIDS    CLOUDY    49  48  97 NW7       29.78S
CAMP DOUGLAS   PTCLDY    48  46  93 W8        29.79S
$$

WIZ011>013-019>022-031-037>040-048>050-280400-
NORTHEAST WISCONSIN

CITY           SKY/WX    TMP DP  RH WIND       PRES   REMARKS
ANTIGO         CLOUDY    46  46  99 CALM      29.74R
SHAWANO        CLOUDY    51  48  90 CALM      29.74R
OCONTO         NOT AVBL
STURGEON BAY   CLOUDY    51  50  96 W3        29.72S
GREEN BAY      CLOUDY    50  50 100 W7        29.73S
MANITOWOC      NOT AVBL
APPLETON       CLOUDY    48  48 100 W7        29.73S
CLINTONVILLE   NOT AVBL
OSHKOSH        CLOUDY    50  47  89 W7        29.75S
$$

WIZ032>034-041-042-053>061-280400-
SOUTHWEST WISCONSIN

CITY           SKY/WX    TMP DP  RH WIND       PRES   REMARKS
LA CROSSE      LGT RAIN  52  48  86 NW9       29.81S
SPARTA         DRIZZLE   47  47  97 W5        29.81S
VIROQUA        CLOUDY    48  47  97 NW6       29.81S
BOSCOBEL       LGT RAIN  52  47  83 W5        29.82F
PRAIRIE DU CHI CLOUDY    54  44  71 N7        29.82S
PLATTEVILLE    CLOUDY    53  47  79 N13G21    29.81R
$$

WIZ056-057-062-063-064-067-068-280400-
SOUTH CENTRAL WISCONSIN

CITY           SKY/WX    TMP DP  RH WIND       PRES   REMARKS
REEDSBURG      NOT AVBL
BARABOO/DELLS  RAIN      47  46  93 W5        29.79S
LONE ROCK      NOT AVBL
MINERAL POINT  MOCLDY    52  46  82 NW7       29.82R
MADISON        CLOUDY    49  46  90 NW3       29.79F
MIDDLETON      CLOUDY    50  48  93 NW6       29.80F
WATERTOWN      DRIZZLE   49  49 100 W6        29.79R
MONROE         CLOUDY    50  45  81 NE7       29.78F
JANESVILLE     NOT AVBL
$$

WIZ051-052-058>065-066-070>072-280400-
SOUTHEAST WISCONSIN

CITY           SKY/WX    TMP DP  RH WIND       PRES   REMARKS
MILWAUKEE      LGT RAIN  53  47  79 NW5       29.78F
WAUKESHA       DRIZZLE   46  45  93 W5        29.79F
MILWAUKEE/TIMM DRIZZLE   50  45  81 W3        29.79S
RACINE         LGT RAIN  52  46  80 N5        29.80F
BURLINGTON     CLOUDY    50  44  81 NW7       29.80S
KENOSHA        CLOUDY    53  45  74 NW8       29.79F
FOND DU LAC    LGT RAIN  50  47  89 W6        29.76S
SHEBOYGAN      LGT RAIN  50  47  89 W7        29.75S
WEST BEND      DRIZZLE   50  46  87 W5        29.77S
JUNEAU         RAIN      48  47  95 W5        29.79R
$$

LSZ147-162-280400-
LAKE SUPERIOR

STATION/POSITION TIME  TEMP    WIND        PRES    WAVE
                       AIR SEA DIR/SP/G            HT/PER
                 (UTC) (F)     (DEG/KT/KT) (MB)    (FT/S)
W MID LAKE BUOY  0150   55 51  340/ 16/ 17 1006.7R   3/ 5
DEVILS ISLAND    0200   53     330/ 15/ 17 1008.8R
SAXON HARBOR     0200   54     310/ 16/ 18 1008.1R
$$

LMZ867-665-643>646-280400-
LAKE MICHIGAN

STATION/POSITION TIME  TEMP    WIND        PRES    WAVE
                       AIR SEA DIR/SP/G            HT/PER
                 (UTC) (F)     (DEG/KT/KT) (MB)    (FT/S)
CHAMBERS ISLAND  0200   53     250/  4/  7 1005.8R
N MID LAKE BUOY  0150   56 66  270/ 10/ 14 1004.7R   3/ 6
NORTHPORT PIER   0200   54     280/  5/  9 1005.8R
SISTER BAY       0153   54     330/ 13/ 14   N/A
ALGOMA LAKESHORE 0217          260/  6/  9   N/A
KEWAUNEE LAKESHO 0200   51     260/  8/ 10 1006.0R
SHEBOYGAN LAKESH 0200   52     240/  7/ 10 1007.5R
PORT WASHINGTON  0240   52     240/  4/  5 1008.8S
ATWATER BUOY     0200   53 54  270/  8/ 10 1008.8R
MILWAUKEE LAKESH 0210   53     270/  7/  9   N/A
S MID LAKE BUOY  0150   58 70  340/ 12/ 17 1007.9R   3/ 5
KENOSHA   LAKESH 0200   55     320/  5/  8 1009.1R
$$

TC  - TEMPERATURE IN CELSIUS
VSB - VISIBILITY IN STATUTE MILES
WCI - WIND CHILL INDEX
HX  - HEAT INDEX




USA.gov is the U.S. government's official web portal to all federal, state and local government web resources and services.